This is the latest recevied weather packets stored in our database for station/object KJ5JYX. If no packets are shown the sender has not sent any weather packets the latest 10 day(s).
| Time | Temp. | Humidity | Pressure | Rain* | Wind** | Luminosity | Snow |
|---|---|---|---|---|---|---|---|
| 1778024369 | 30° C | 66% | 1006.3 hPa | 0 mm | - | 72 W/m² | - |
| 1778024067 | 30° C | 66% | 1006.4 hPa | 0 mm | - | 89 W/m² | - |
| 1778023764 | 30° C | 66% | 1006.1 hPa | 0 mm | - | 82 W/m² | - |
| 1778023462 | 30° C | 65% | 1006.3 hPa | 0 mm | - | 93 W/m² | - |
| 1778023159 | 30° C | 67% | 1006.5 hPa | 0 mm | - | 103 W/m² | - |
| 1778022856 | 30° C | 66% | 1006.4 hPa | 0 mm | - | 90 W/m² | - |
| 1778022554 | 30.56° C | 65% | 1006.4 hPa | 0 mm | - | 88 W/m² | - |
| 1778022252 | 30.56° C | 65% | 1006.4 hPa | 0 mm | - | 107 W/m² | - |
| 1778021948 | 30.56° C | 65% | 1006.2 hPa | 0 mm | - | 123 W/m² | - |
| 1778021645 | 30.56° C | 64% | 1006.4 hPa | 0 mm | - | 126 W/m² | - |
| 1778021341 | 30.56° C | 64% | 1006.3 hPa | 0 mm | - | 131 W/m² | - |
| 1778021039 | 30.56° C | 63% | 1006.1 hPa | 0 mm | - | 123 W/m² | - |
| 1778020735 | 30.56° C | 66% | 1006.1 hPa | 0 mm | - | 127 W/m² | - |
| 1778020432 | 30.56° C | 63% | 1006.3 hPa | 0 mm | - | 136 W/m² | - |
| 1778020128 | 30.56° C | 63% | 1006.3 hPa | 0 mm | - | 127 W/m² | - |
| 1778019825 | 30.56° C | 62% | 1006.3 hPa | 0 mm | - | 143 W/m² | - |
| 1778019521 | 31.11° C | 62% | 1006.3 hPa | 0 mm | - | 138 W/m² | - |
| 1778019218 | 30.56° C | 64% | 1006.4 hPa | 0 mm | - | 179 W/m² | - |
| 1778018915 | 31.11° C | 63% | 1006.4 hPa | 0 mm | - | 263 W/m² | - |
| 1778018612 | 30.56° C | 63% | 1006.3 hPa | 0 mm | - | 230 W/m² | - |
| 1778018310 | 31.11° C | 60% | 1006.3 hPa | 0 mm | - | 207 W/m² | - |
| 1778018008 | 31.67° C | 64% | 1006.3 hPa | 0 mm | - | 221 W/m² | - |
| 1778017706 | 31.67° C | 62% | 1006.2 hPa | 0 mm | - | 198 W/m² | - |
| 1778017403 | 31.67° C | 61% | 1006.2 hPa | 0 mm | - | 272 W/m² | - |
| 1778017100 | 31.67° C | 59% | 1006.4 hPa | 0 mm | - | 344 W/m² | - |
* Rain latest hour (hover to see other rain measurements)
** Current wind speed in m/s (hover to see current wind gust speed)